Wind_Speed
28 26 27 27 28 28 28 31 32 33 33 31 37 36 36 37 37 38 39 40 42 43 45 45 46 47 48
27 25 25 27 28 29 29 30 31 29 31 35 36 35 36 36 37 37 39 41 42 44 44 46 47 48 49
26 25 27 29 29 32 30 25 27 31 32 33 34 36 36 36 36 39 41 42 43 45 46 47 48 48 47
25 28 29 31 29 24 22 26 29 30 30 33 34 35 36 37 39 41 43 43 45 46 46 47 47 47 47
29 30 28 21 18 21 25 27 29 28 30 34 34 35 37 38 40 42 44 45 45 46 46 46 45 46 47
25 24 23 18 19 24 25 26 28 28 28 31 33 34 37 39 41 43 44 44 44 44 44 44 46 47 46
21 14 14 18 21 22 23 25 26 27 27 29 32 33 37 39 41 42 42 42 41 42 43 45 46 46 44
10 12 17 18 19 21 22 23 25 26 28 30 32 33 34 36 38 40 40 39 39 41 42 43 44 44 44
12 14 15 16 17 19 21 23 25 27 29 32 35 33 30 30 32 35 34 36 37 38 39 41 43 45 43
12 13 13 15 17 19 20 23 26 29 29 31 35 39 35 24 25 30 31 32 34 35 37 39 41 43 39
11 11 13 15 17 19 21 23 26 30 31 31 32 32 32 35 30 31 33 34 36 38 39 39 37 36 36
10 12 15 17 18 20 23 25 27 29 31 31 29 29 30 32 34 34 36 38 41 40 37 35 33 32 31
11 14 16 18 19 22 24 27 28 29 28 27 26 25 29 32 37 37 40 40 37 36 32 34 35 31 27
13 15 17 18 21 23 25 27 28 29 28 25 24 26 27 31 36 37 37 38 35 34 32 32 33 31 29
14 16 18 20 22 24 25 25 24 22 21 21 22 24 26 30 33 33 33 32 31 33 33 30 30 30 29
16 17 19 21 23 24 24 22 22 20 18 18 19 19 19 22 30 33 30 31 29 28 29 31 28 28 30
17 18 20 22 23 22 21 21 21 21 21 20 22 25 25 22 23 34 33 29 26 26 26 26 29 28 30
Wind_Direction
262 250 255 264 266 265 273 281 286 286 289 294 293 296 298 297 301 301 303 302 302 303 304 303 303 302 301
252 253 260 260 262 268 282 285 281 288 289 290 295 298 297 300 302 303 301 302 305 304 304 304 302 302 302
247 255 259 257 266 279 279 282 285 288 293 296 296 297 300 303 302 303 305 307 306 304 303 303 304 304 303
250 251 256 268 271 274 282 284 288 292 296 296 298 300 303 304 307 308 307 306 305 304 306 307 307 308 308
245 257 266 264 271 277 283 289 293 298 299 300 305 306 308 311 309 306 306 306 307 308 309 310 309 308 308
255 253 253 264 274 285 290 292 297 299 301 301 305 310 309 308 307 306 307 309 311 312 311 310 311 311 313
257 260 266 279 287 288 290 294 296 300 305 308 310 309 308 307 308 309 312 313 313 312 313 314 313 313 312
244 270 279 282 286 291 295 299 303 308 310 309 306 308 308 310 312 311 312 313 315 315 315 314 312 311 312
274 276 279 287 294 299 300 304 310 310 308 307 306 310 313 313 309 307 313 315 316 315 315 314 313 314 316
267 278 289 295 295 300 309 312 308 304 308 311 313 315 315 315 314 314 318 318 318 319 318 317 317 316 320
271 283 293 300 308 311 309 308 308 311 313 317 317 318 321 324 330 327 328 331 327 326 325 323 321 323 324
292 304 309 310 310 310 309 311 312 315 318 321 324 326 327 327 330 335 334 337 332 329 329 326 325 329 328
305 309 309 311 311 313 315 315 317 320 322 325 329 331 332 334 331 338 338 336 332 332 334 329 331 336 334
309 310 313 313 317 319 318 319 320 324 328 330 333 334 336 335 332 336 335 335 337 337 338 337 334 336 339
312 313 315 319 317 316 317 317 321 325 324 327 333 336 336 332 327 333 340 346 345 339 337 340 337 338 344
316 318 318 315 315 316 317 321 323 326 330 330 331 333 336 338 331 337 351 354 352 344 341 339 342 342 346
318 315 314 315 316 317 322 325 328 331 332 336 337 338 342 343 352 343 351 354 2 359 355 347 343 346 341
Height
3076 3078 3079 3078 3078 3077 3077 3074 3072 3069 3067 3064 3062 3056 3053 3051 3045 3040 3035 3030 3025 3019 3014 3008 3003 2996 2991
3070 3072 3071 3071 3071 3071 3068 3066 3064 3062 3060 3057 3053 3048 3046 3041 3037 3032 3027 3020 3015 3009 3003 2998 2992 2985 2980
3063 3064 3065 3065 3065 3064 3061 3058 3058 3056 3052 3047 3044 3041 3037 3033 3028 3023 3016 3010 3005 2999 2993 2988 2981 2974 2969
3057 3058 3059 3058 3057 3055 3054 3053 3050 3048 3044 3040 3037 3032 3028 3024 3018 3012 3007 3002 2997 2991 2984 2977 2971 2963 2956
3052 3052 3053 3051 3051 3050 3048 3046 3043 3040 3037 3032 3029 3024 3019 3014 3009 3004 2999 2994 2988 2981 2973 2966 2960 2953 2946
3046 3045 3045 3046 3046 3045 3042 3040 3037 3035 3032 3027 3022 3017 3012 3007 3002 2996 2991 2985 2977 2970 2964 2957 2950 2941 2934
3040 3041 3042 3042 3041 3039 3037 3034 3032 3029 3026 3020 3016 3012 3006 3002 2995 2987 2980 2974 2969 2962 2954 2946 2938 2931 2925
3037 3038 3038 3036 3035 3034 3031 3028 3025 3022 3018 3014 3011 3007 3002 2995 2986 2978 2973 2968 2962 2953 2945 2938 2930 2922 2916
3034 3034 3033 3032 3030 3028 3026 3023 3018 3015 3012 3008 3003 3001 2996 2989 2981 2974 2969 2961 2954 2947 2939 2930 2921 2913 2907
3030 3030 3029 3028 3027 3023 3019 3016 3014 3011 3008 3003 2996 2988 2985 2984 2976 2968 2962 2956 2948 2940 2932 2924 2914 2904 2898
3027 3026 3025 3023 3020 3018 3016 3014 3010 3005 3000 2996 2990 2984 2976 2966 2965 2960 2954 2947 2939 2932 2923 2915 2907 2898 2890
3023 3021 3019 3018 3017 3014 3012 3008 3004 3000 2994 2988 2983 2976 2970 2964 2958 2954 2946 2940 2931 2923 2915 2906 2901 2895 2886
3019 3018 3017 3015 3012 3010 3006 3002 2997 2992 2988 2982 2977 2972 2965 2959 2951 2947 2939 2933 2926 2917 2911 2901 2893 2889 2883
3016 3015 3013 3010 3007 3004 3000 2996 2991 2985 2980 2976 2972 2967 2963 2956 2948 2943 2939 2928 2920 2912 2906 2899 2891 2884 2879
3013 3011 3009 3006 3003 3000 2996 2992 2987 2983 2979 2974 2969 2965 2960 2953 2947 2942 2935 2927 2918 2909 2902 2897 2890 2882 2877
3010 3007 3005 3002 2999 2995 2991 2987 2982 2979 2975 2971 2968 2965 2960 2955 2944 2938 2932 2923 2916 2909 2901 2894 2889 2881 2875
3006 3004 3002 2998 2995 2990 2986 2982 2977 2973 2970 2967 2963 2958 2954 2951 2946 2932 2926 2922 2917 2910 2902 2894 2886 2880 2873